Regional Weather Roundup
Issued by NWS

Home | Current Version | Previous Version | Text Only | Print | Product List | Glossary On
Versions: 1 2 3 4 5 6 7 8 9 10 11 12 13 14 15 16 17 18 19 20 21 22 23 24 25 26 27 28 29 30 31 32 33 34 35 36 37 38 39 40 41 42 43 44 45 46 47 48 49 50
532
ASUS43 KMPX 241201
RWRMN
WEATHER ROUNDUP FOR MINNESOTA
NATIONAL WEATHER SERVICE TWIN CITIES/CHANHASSEN MN
700 AM CDT WED AUG 24 2016


NOTE: "FAIR" INDICATES FEW OR NO CLOUDS BELOW 12,000 FEET WITH NO
SIGNIFICANT WEATHER AND/OR OBSTRUCTIONS TO VISIBILITY. N/A MEANS
CURRENT SKY AND/OR WEATHER CONDITIONS ARE NOT AVAILABLE.

MNZ060>063-068>070-241300-
   Twin Cities Metro

CITY           SKY/WX    TMP DP  RH WIND       PRES   REMARKS
TWIN CITIES    MOCLDY    68  66  93 W6        29.83R
6HR MIN TEMP:  68; 6HR MAX TEMP:  69; 6HR PCP:  0.07;

ST PAUL        CLOUDY    69  67  93 W7        29.83R
CRYSTAL        CLOUDY    67  63  87 CALM      29.82R
BLAINE         CLOUDY    70  70 100 CALM      29.83R
LAKEVILLE      CLOUDY    66  66 100 W5        29.83R FOG
EDEN PRAIRIE   CLOUDY    68  65  90 NW5       29.82R
6HR MIN TEMP:  67; 6HR MAX TEMP:  68; 6HR PCP:  0.14;

LAKEVILLE      CLOUDY    66  66 100 W5        29.83R FOG
SOUTH ST PAUL  MOCLDY    69  68  98 W3        29.83R
LAKE ELMO      CLOUDY    68  68 100 W5        29.84R
$$
MNZ001>005-007-008-013>017-022>024-027-028-241300-
   Northwest Minnesota

CITY           SKY/WX    TMP DP  RH WIND       PRES   REMARKS
BEMIDJI        CLEAR     61  56  85 W6        29.82S
HALLOCK        PTCLDY    52  50  93 S3        29.78S
ROSEAU         CLEAR     59  54  82 SW5       29.78R
WARROAD        CLOUDY    64  61  88 SW6       29.77S
THIEF RVR FALL CLEAR     56  53  90 SW7       29.82S
CROOKSTON      CLEAR     57  52  82 W8        29.83S
FOSSTON        CLEAR     52  52 100 S3        29.85R
DETROIT LAKES  CLEAR     61  55  82 W6        29.88S
MOORHEAD       CLEAR     55  52  88 SW5       29.88R
PARK RAPIDS    CLEAR     62  57  83 W8        29.84R
MAHNOMEN       FAIR      56  54  91 W6        29.85R
$$
MNZ006-009>011-018-025>026-241300-
   North Central Minnesota

CITY           SKY/WX    TMP DP  RH WIND       PRES   REMARKS
BAUDETTE       CLOUDY    66  63  90 W9        29.76S
FLAG ISLAND    PTCLDY    66  63  88 CALM      29.73S FOG
INTL FALLS     CLOUDY    69  65  86 VRB6      29.75F
6HR MIN TEMP:  69; 6HR MAX TEMP:  71;

WASKISH        CLOUDY    66  64  94 W9        29.79R
BIG FORK       CLOUDY    66  64  94 S6        29.80S
LONGVILLE      PTCLDY    66  64  94 W3        29.82R
GRAND RAPIDS   MOCLDY    64  63  96 SW5       29.83S
CRANE LAKE     CLEAR     63  61  94 S2        29.80S
ORR            CLOUDY    63  61  94 CALM      29.77F
COOK           PTCLDY    63  63 100 SE5       29.80F
WALKER         PTSUNNY   64  61  90 W7        29.81S
$$
MNZ012-019>021-037-241300-
   Northeast Minnesota

CITY           SKY/WX    TMP DP  RH WIND       PRES   REMARKS
DULUTH         CLOUDY    66  64  93 CALM      29.82S FOG
6HR MIN TEMP:  64; 6HR MAX TEMP:  69;

ELY            CLOUDY    63  61  94 CALM      29.81F
HIBBING        FOG       57  57 100 CALM      29.82S VSB 1/2
EVELETH        FOG       60  60  98 CALM      29.83F VSB 1/4
DULUTH HARBOR  CLOUDY    68  64  88 CALM      29.80S
TWO HARBORS    PTCLDY    63  57  82 CALM      29.80S HAZE
SILVER BAY     CLOUDY    57  57 100 CALM      29.80S
GRAND MARAIS     N/A     63  62  97 NW3       29.80F
G MARAIS ARPRT FOG       59  57  94 CALM      29.86S VSB 3/4
$$
MNZ029>031-032-039>041-046>048-054>057-064-241300-
   West Central Minnesota

CITY           SKY/WX    TMP DP  RH WIND       PRES   REMARKS
FERGUS FALLS   CLEAR     57  55  94 NW7       29.90R
WHEATON        CLEAR     61  54  77 W8        29.92S
MORRIS         CLEAR     57  55  94 NW7       29.89R
ALEXANDRIA     PTCLDY    66  59  78 NW8       29.89R
ELBOW LAKE     FAIR      57  56  94 NW6       29.90R
WADENA         PTCLDY    63  61  94 W6        29.85R
GLENWOOD       CLEAR     66  64  94 W8        29.88R
APPLETON       CLEAR     59  54  82 W5        29.89R
BENSON         CLEAR     61  55  82 NW9       29.89R
ORTONVILLE     CLEAR     63  52  67 NW8       29.91R
MADISON        CLEAR     59  52  77 NW7       29.91R
WILLMAR        MOCLDY    68  66  94 NW9       29.87R
$$
MNZ033>034-036-042>043-049>051-058-059-241300-
   Central Minnesota

CITY           SKY/WX    TMP DP  RH WIND       PRES   REMARKS
ST CLOUD       CLOUDY    67  67 100 W3        29.83R
6HR MIN TEMP:  65; 6HR MAX TEMP:  67;

SAUK CENTRE    PTSUNNY   66  65  97 W5        29.85R
PAYNESVILLE    CLOUDY    67  67 100 W5        29.86R FOG
AITKIN         CLOUDY    70  63  78 CALM      29.81R
PINE RIVER     CLEAR     63  63 100 CALM      29.85S FOG
BRAINERD       CLOUDY    67  65  93 SW6       29.82F
STAPLES        MOCLDY    64  63  94 W6        29.83S
LONG PRAIRIE   CLOUDY    66  64  94 W7        29.86R
LITTLE FALLS   CLOUDY    64  63  94 CALM      29.84R FOG
LITCHFIELD     CLOUDY    70  68  94 CALM      29.86R FOG
BUFFALO        MOCLDY    66  64  92 CALM      29.84S
MAPLE LAKE     CLOUDY    68  67  98 CALM      29.85R
HUTCHINSON     CLOUDY    68  67  99 CALM      29.86R FOG
$$
MNZ037-044-045-052-053-241300-
   East Central Minnesota

CITY           SKY/WX    TMP DP  RH WIND       PRES   REMARKS
PRINCETON      PTCLDY    66  66 100 CALM      29.83R FOG
MORA           CLOUDY    64  63  94 NW6       29.84R
CAMBRIDGE      CLOUDY    68  64  88 CALM      29.82R
RUSH CITY      RAIN      66  65  95 CALM      29.83R
MOOSE LAKE     CLOUDY    64  63  94 CALM      29.79F FOG
HINCKLEY       CLOUDY    64  64 100 CALM      29.82R FOG
CLOQUET        CLOUDY    64  63  94 CALM      29.81F
MCGREGOR       CLOUDY    64  63  94 SW3       29.82S
$$
MNZ071>073-080-081-089-090-097-098-241300-
   Southwest Minnesota

CITY           SKY/WX    TMP DP  RH WIND       PRES   REMARKS
MONTEVIDEO     CLEAR     61  61 100 NW8       29.91R
GRANITE FALLS  CLEAR     62  59  90 W10       29.90R
CANBY          CLEAR     59  51  74 NW8       29.93R
MARSHALL       CLEAR     60  53  77 NW9       29.91R
REDWOOD FALLS  MOCLDY    66  63  90 W7        29.86R
OLIVIA         CLOUDY    64  63  94 NW5       29.86R
PIPESTONE      CLEAR     63  55  77 N6        29.94R
WINDOM         CLEAR     64  61  88 NW8       29.89R
WORTHINGTON    CLEAR     64  59  83 NW9       29.92R
JACKSON        PTCLDY    68  63  83 NW9       29.89R
TRACY          CLEAR     62  56  80 NW8       29.91R
SLAYTON        CLEAR     61  55  82 NW9       29.93R
$$
MNZ065>067-074>077-082>085-091>093-241300-
   South Central Minnesota

CITY           SKY/WX    TMP DP  RH WIND       PRES   REMARKS
MANKATO        CLOUDY    70  66  88 W7        29.84R
NEW ULM        CLOUDY    68  66  94 CALM      29.85R FOG
ST JAMES       CLOUDY    64  63  94 CALM      29.86R FOG
FAIRMONT         N/A    N/A N/A N/A MISG        N/A
GLENCOE        CLOUDY    67  68 100 CALM      29.84R FOG
FARIBAULT      CLOUDY    70  70 100 CALM      29.85R
OWATONNA       CLOUDY    72  68  88 CALM      29.85R FOG
WASECA         CLOUDY    72  70  94 SW5       29.86R FOG
ALBERT LEA     CLOUDY    72  70  94 W7        29.85R
$$
MNZ078>079-086>088-094>096-241300-
   Southeast Minnesota

CITY           SKY/WX    TMP DP  RH WIND       PRES   REMARKS
ROCHESTER      CLOUDY    70  69  97 SW5       29.86R
6HR MIN TEMP:  66; 6HR MAX TEMP:  70; 6HR PCP: TRACE;

RED WING       CLOUDY    70  66  88 CALM      29.81S
STANTON        CLOUDY    70  66  88 CALM      29.82R
DODGE CENTER   CLOUDY    70  68  94 SW7       29.85R FOG
WINONA         CLOUDY    70  64  83 CALM      29.85R
AUSTIN         CLOUDY    72  68  88 S5        29.85R FOG
PRESTON        CLOUDY    68  66  94 S6        29.87R
$$
ABBREVIATIONS USED IN REMARKS
   TC - TEMPERATURES IN CELSIUS
  WCI - WIND CHILL INDEX
   HX - HEAT INDEX
  VSB - VISIBILITY
$$




USA.gov is the U.S. government's official web portal to all federal, state and local government web resources and services.